EUTELSAT 36B

Last updated on Sun Nov 16 2025 00:03:41 GMT+0000 (Coordinated Universal Time)

1 36101U 09065A 25319.46214858 .00000119 00000+0 00000+0 0 9998 2 36101 0.0521 26.8421 0006247 212.0190 32.8150 1.00273090 58563
UTC large
Height (km)
Speed (km/s)
/
Latitude / Longitude
Inclination (degrees)
Orbital Period (minutes)
Azimuth
Elevation
Range (km)
Doppler Factor

Next 0 passes for location: London (51.5072 / 0.1276)

Sorry there are no passes over London.